Regional Weather Roundup
Issued by NWS

Home | Current Version | Previous Version | Graphics & Text | Print | Product List | Glossary On
Versions: 1 2 3 4 5 6 7 8 9 10 11 12 13 14 15 16 17 18 19 20 21 22 23 24 25 26 27 28 29 30 31 32 33 34 35 36 37 38 39 40 41 42 43 44 45 46 47 48 49 50
124
ASUS43 KIND 161109
RWRIN

WEATHER ROUNDUP FOR INDIANA
NATIONAL WEATHER SERVICE INDIANAPOLIS IN
700 AM EDT WED AUG 16 2017

NOTE: "FAIR" INDICATES FEW OR NO CLOUDS BELOW 12,000 FEET WITH NO
SIGNIFICANT WEATHER AND/OR OBSTRUCTIONS TO VISIBILITY.

* - STATION DOES NOT REPORT WEATHER SUCH AS PRECIPITATION OR FOG.

+ - STATION NOT QUALITY CONTROLLED BY THE NATIONAL WEATHER SERVICE.
    USE DATA WITH CAUTION...ESPECIALLY DEWPOINT AND RELATIVE
    HUMIDITY OBSERVATIONS.

INZ001>003-010>013-019-020-161200-
NORTHWEST INDIANA

CITY           SKY/WX    TMP DP  RH WIND       PRES   REMARKS
GARY /AIRPORT/ PTCLDY    64  63  94 CALM      30.01R
KNOX *+        PTCLDY    57  57 100 CALM      30.00S
LA PORTE +     PTCLDY    59  58  94 CALM      30.01S
MICHIGAN CITY+ PTCLDY    59  59 100 CALM      30.02R
MONTICELLO +   PTCLDY    66  65  94 CALM      30.00R
RENSSELAER +   CLEAR     63  59  88 CALM      30.00R HAZE
VALPARAISO     MOCLDY    64  61  90 NE5       30.01S

$$

LMZ046-743>745-161200-
SOUTHERN LAKE MICHIGAN

STATION/POSITION TIME  TEMP    WIND        PRES    WAVE
                       AIR SEA DIR/SP/G            HT
                 (UTC) (F)     (DEG/KT/KT) (MB)    (FT)
BURNS HARBOR     1040   69      90/  5/  7 1016.3S
MICHIGAN CITY    1040   66      60/  3/  4   N/A
5NW MICH CITY    1100   70 74  100/  6/  8   N/A     2

$$

INZ004-005-014>016-021>024-161200-
NORTH CENTRAL INDIANA

CITY           SKY/WX    TMP DP  RH WIND       PRES   REMARKS
ELKHART        CLEAR     63  63 100 CALM      30.02
GOSHEN         FOG       61  58  90 CALM      30.02S VSB 1/4
LOGANSPORT +   FOG       61  61 100 CALM      30.02R VSB 1/2
PERU/GRISSOM   CLEAR     66  66 100 CALM      30.00R
ROCHESTER +      N/A     63  63 100 CALM      30.02R FOG
SOUTH BEND     PTCLDY    61  61 100 CALM      30.02R
WARSAW +       MOCLDY    59  59 100 CALM      30.02R FOG

$$

INZ006>009-017-018-025>027-161200-
NORTHEAST INDIANA

CITY           SKY/WX    TMP DP  RH WIND       PRES   REMARKS
AUBURN +         N/A     63  61  94 NE3       30.04R FOG
FORT WAYNE     PTCLDY    65  62  90 NE5       30.03R FOG
HUNTINGTON +   MOCLDY    62  61  96 CALM      30.02R FOG
KENDALLVILLE + CLEAR     64  64 100 CALM      30.05R FOG

$$

INZ028-029-035-036-043>045-051>053-161200-
WEST CENTRAL INDIANA

CITY           SKY/WX    TMP DP  RH WIND       PRES   REMARKS
GREENCASTLE +  CLEAR     64  63  94 CALM      30.01R
LAFAYETTE      CLEAR     66  66 100 CALM      29.99R
TERRE HAUTE    FOG       65  63  93 CALM      29.99R VSB 3/4

$$

INZ030>032-037>040-046>048-054>057-064-065-161200-
CENTRAL INDIANA

CITY           SKY/WX    TMP DP  RH WIND       PRES   REMARKS
CP ATTERBURY + FOG       63  61  94 CALM      30.02R VSB 1/2
COLUMBUS       MOCLDY    64  63  94 CALM      30.01  FOG
FRANKFORT +    CLOUDY    66  65  96 SE3       30.03R FOG
GREENWOOD *+   CLEAR     65  64  96 CALM      30.02R
INDIANAPOLIS   PTCLDY    70  66  87 CALM      30.00R
-EAGLE CREEK   CLEAR     70  67  90 CALM      30.00R
KOKOMO +       PTCLDY    64  63  96 CALM      30.02R FOG
MARION +       PTCLDY    64  63  94 CALM      30.02R FOG
MT COMFORT *+  CLEAR     64  64 100 CALM      30.01S
SHELBYVILLE    FOG       65  61  87 CALM      30.01R VSB 1
ZIONSVILLE +   FOG       63  63  99 CALM      30.02R VSB 1/4

$$

INZ033-034-041-042-049-050-058-059-161200-
EAST CENTRAL INDIANA

CITY           SKY/WX    TMP DP  RH WIND       PRES   REMARKS
MUNCIE         CLEAR     66  63  90 CALM      30.02R FOG
RICHMOND +     CLEAR     63  63 100 CALM      30.05R FOG

$$

INZ060-061-067>069-081>083-085>088-161200-
SOUTHWEST INDIANA

CITY           SKY/WX    TMP DP  RH WIND       PRES   REMARKS
EVANSVILLE     CLOUDY    70  69  97 CALM      29.99S FOG
HUNTINGBURG *+ PTCLDY    70  69  97 SE6       30.00R FOG
WASHINGTON +   MOCLDY    67  65  94 MISG      29.99R FOG

$$

INZ062-063-066-070>080-084-089>092-161200-
SOUTH CENTRAL AND SOUTHEAST INDIANA

CITY           SKY/WX    TMP DP  RH WIND       PRES   REMARKS
BEDFORD +      PTCLDY    68  64  88 CALM      30.00  FOG
BLOOMINGTON    FOG       64  61  90 CALM      30.02R VSB 3/4
MADISON *+     CLOUDY    68  66  94 CALM      30.05R
NORTH VERNON + PTCLDY    64  64 100 CALM      30.03R
SEYMOUR +        N/A     66  66 100 CALM      30.01R FOG

$$





USA.gov is the U.S. government's official web portal to all federal, state and local government web resources and services.